Home > Weather > Olathe > Past weeks

Flag for USA Past Weather in Olathe, Kansas, USA — Yesterday and Last 2 Weeks

Now
79 °F

Sunny.


Feels Like: 80 °F
Forecast: 62 / 82 °F
Wind: 5 mph from South

Location: Johnson County Executive Airport

Current Time: May 29, 2016 at 8:09:00 PM

Latest Report: May 29, 2016 at 6:53 PM


Visibility: 10 mi

Pressure: 30.02 "Hg

Humidity: 52%

Dew Point: 60 °F

Location of OlatheLocation

Past Weather in Olathe — Graph

°F

Olathe Temperature Yesterday

Maximum temperature yesterday: 75 °F (at 5:53 PM)
Minimum temperature yesterday: 57 °F (at 2:53 AM)
Average temperature yesterday: 66 °F

High & Low Weather Summary for the Past Weeks

 TemperatureHumidityPressure
High83 °F (May 29, 2:53 PM)100% (May 16, 3:53 PM)30.28 "Hg (May 16, 3:53 PM)
Low43 °F (May 15, 1:53 AM)32% (May 15, 12:53 PM)29.66 "Hg (May 27, 4:53 AM)
Average62 °F76%30.00 "Hg
* Reported May 14 7:53 PM — May 29 6:53 PM, Olathe, Weather by CustomWeather, © 2016

Note: Actual official high and low records may vary slightly from our data, if they occured in-between our weather recording intervals... More about our weather records

Advertising

Olathe Weather History for the Previous 24 Hours

Scroll right to see more
 ConditionsComfort  
Time TempWeatherWind HumidityBarometerVisibility
6:53 PM
Sun, May 29
79 °FSunny.5 mph52%30.02 "Hg10 mi
5:53 PM81 °FSunny.5 mph51%30.02 "Hg10 mi
4:53 PM81 °FSunny.7 mph44%30.04 "Hg10 mi
3:53 PM82 °FPassing clouds.6 mph41%30.05 "Hg10 mi
2:53 PM83 °FPassing clouds.5 mph41%30.08 "Hg10 mi
1:53 PM82 °FSunny.6 mph44%30.08 "Hg10 mi
12:53 PM82 °FSunny.8 mph44%30.09 "Hg10 mi
11:53 AM81 °FSunny.7 mph47%30.09 "Hg10 mi
10:53 AM79 °FSunny.8 mph48%30.09 "Hg10 mi
9:53 AM77 °FSunny.8 mph56%30.09 "Hg10 mi
8:53 AM73 °FSunny.5 mph69%30.08 "Hg10 mi
7:53 AM66 °FSunny.5 mph87%30.07 "Hg10 mi
6:53 AM60 °FClear.3 mph96%30.06 "Hg10 mi
5:53 AM58 °FClear.3 mph97%30.05 "Hg10 mi
4:53 AM59 °FClear.3 mph93%30.03 "Hg10 mi
3:53 AM60 °FClear.No wind93%30.02 "Hg10 mi
2:53 AM59 °FClear.3 mph96%30.01 "Hg10 mi
1:53 AM61 °FClear.3 mph90%30.01 "Hg10 mi
12:53 AM62 °FClear.No wind90%30.01 "Hg10 mi
11:53 PM
Sat, May 28
62 °FClear.No wind90%30.00 "Hg10 mi
10:53 PM67 °FClear.No wind73%29.99 "Hg10 mi
9:53 PM68 °FClear.3 mph73%29.96 "Hg10 mi
8:53 PM70 °FSunny.3 mph68%29.94 "Hg10 mi
Weather by CustomWeather, © 2016

See weather overviewHow to use our weather pages